User: anonymous   Login
Location: Unspecified
(0.0000°N, 0.0000°E)
Time: 06:21:34
(UTC+00:00)
Language:

PCSat - Orbit

View from above orbital plane
View from above orbital plane
View from above satellite
View from above satellite

Ground track
Ground track

The orbit data is extracted from the following two-line orbital elements,

1 26931U 01043C   24202.81843484  .00000439  00000-0  19715-3 0  9991
2 26931  67.0496 244.6664 0007644 275.4907  84.5322 14.31281506190760
Epoch (UTC): 20 July 2024 19:38:32
Eccentricity: 0.0007644
inclination: 67.0496°
perigee height: 782 km
apogee height: 793 km
right ascension of ascending node: 244.6664°
argument of perigee: 275.4907°
revolutions per day: 14.31281506
mean anomaly at epoch: 84.5322°
orbit number at epoch: 19076

The dashed part of the orbit path shows where the satellite is in the earth's shadow,  

DLR